Wind_Speed
8 9 9 9 8 8 9 9 10 10 10 11 10 9 10 10 11 11 11 11 11 12 12 12 12 12 12 11 12 12 12 12 11 11 11 11 11 12 12 13 14 15 15 16
9 9 9 9 9 9 10 10 10 10 11 11 12 11 11 11 12 12 13 13 13 13 13 13 13 13 13 13 13 13 13 12 12 11 12 12 13 13 14 14 15 16 16 17
10 10 10 10 10 11 10 10 11 11 12 13 13 12 12 13 13 13 13 13 14 14 14 14 14 14 13 13 13 13 13 13 13 13 13 13 14 14 15 15 16 16 17 18
11 11 11 12 12 12 11 11 12 13 14 14 14 14 13 14 14 13 14 14 15 15 15 15 15 15 14 14 14 14 14 14 14 14 14 14 14 15 15 16 17 17 17 18
12 12 13 13 13 13 12 13 13 14 14 15 15 15 13 14 15 15 15 16 16 16 16 16 16 16 16 15 15 15 14 14 15 15 15 16 15 16 16 17 17 17 18 19
13 14 14 13 14 14 14 14 14 15 15 16 15 16 14 14 15 16 16 17 17 17 17 17 17 16 17 17 16 16 16 15 15 16 16 17 18 18 18 18 18 18 19 20
13 14 14 14 14 15 15 15 15 16 16 16 16 17 16 15 17 18 18 18 18 18 18 18 18 18 18 18 18 18 17 17 17 17 17 18 19 19 19 19 19 20 20 20
14 14 15 15 16 16 16 16 16 17 17 17 17 18 17 17 18 18 18 18 18 18 18 19 19 19 19 19 19 19 19 19 19 19 20 20 20 20 21 21 21 21 22 22
14 14 15 16 16 16 16 16 16 18 18 19 18 18 18 17 18 18 18 18 17 18 18 19 19 19 19 20 20 20 20 20 21 21 21 21 21 21 22 22 22 22 23 24
14 14 15 16 17 17 17 17 17 18 19 19 19 18 17 17 17 18 18 18 17 17 18 20 20 19 19 20 21 21 21 22 22 22 23 23 23 23 23 23 22 23 24 25
15 15 15 16 18 18 18 18 18 18 19 19 18 16 17 17 17 18 18 18 18 18 19 19 19 20 20 20 21 21 22 23 23 23 23 24 25 25 25 25 24 25 25 26
16 17 17 17 18 19 19 19 19 19 19 20 19 17 16 17 17 18 18 18 18 18 18 19 19 20 20 21 22 22 23 23 24 24 24 25 26 26 26 27 27 27 27 27
18 18 18 18 18 19 19 19 20 20 20 20 20 18 17 18 18 19 18 18 18 18 19 19 21 21 21 22 23 24 24 24 25 25 26 26 27 27 27 28 28 28 28 29
20 20 19 19 19 19 19 20 20 21 22 22 21 19 18 19 19 19 19 19 19 20 20 20 21 21 22 23 23 24 26 26 26 27 27 28 29 29 29 29 30 30 30 30
20 21 21 20 20 20 20 20 22 22 23 23 21 21 19 20 20 20 20 20 21 20 20 21 22 23 23 24 24 25 26 27 28 29 29 29 30 30 30 30 31 31 31 31
21 21 22 22 22 22 22 21 22 23 23 23 22 21 21 21 21 22 22 22 22 22 22 23 23 24 25 25 26 27 27 28 29 30 30 30 31 31 31 32 32 33 33 32
22 22 23 23 24 24 23 21 22 24 24 24 23 22 22 23 23 23 23 24 24 24 24 24 24 25 26 27 28 28 28 29 30 30 31 32 32 32 32 32 33 33 34 33
23 23 24 25 25 25 22 22 23 24 23 24 24 24 24 24 24 24 23 23 23 24 24 25 26 26 27 27 28 29 29 30 30 30 31 32 32 33 33 33 33 33 34 33
23 24 25 25 26 26 23 22 24 25 24 24 25 25 25 24 24 25 26 26 25 26 27 27 26 27 27 27 28 28 29 29 29 30 31 31 32 33 34 34 34 35 34 34
24 24 25 25 26 26 24 23 24 26 25 26 27 27 26 26 26 26 27 27 28 28 27 27 27 27 28 28 28 28 28 28 28 29 30 31 32 33 34 35 35 35 35 35
24 24 24 25 26 27 25 24 24 25 25 27 28 28 28 27 27 27 27 28 28 28 28 28 28 28 29 29 29 29 29 29 29 30 30 31 32 33 34 35 35 35 35 35
25 25 25 25 26 26 26 26 26 26 27 28 28 28 28 28 27 27 28 28 28 28 28 29 29 30 30 29 29 30 30 30 30 31 31 31 32 33 34 34 35 35 35 35
26 27 27 27 26 26 26 27 28 28 29 29 29 29 29 29 28 28 29 29 29 29 29 29 29 30 30 30 30 31 31 31 31 31 31 31 31 32 33 33 34 34 35 36
27 27 27 27 26 26 26 27 29 29 29 29 30 31 31 30 30 31 31 31 30 30 30 31 30 30 30 30 31 32 32 32 32 32 32 32 32 32 33 33 34 35 36 37
29 28 29 29 27 28 28 28 29 30 30 30 31 31 32 31 30 30 30 31 31 31 31 32 32 31 31 31 31 32 33 33 33 33 33 33 34 34 33 33 34 34 35 37
29 30 31 30 29 30 30 29 30 31 31 31 32 32 32 32 32 31 31 31 31 31 32 32 32 32 32 32 32 33 32 33 33 33 33 34 34 34 34 34 34 35 35 36
Wind_Direction
247 250 249 248 249 249 248 249 249 247 248 252 254 253 251 252 256 258 259 260 260 259 258 257 256 257 258 261 263 264 266 266 268 271 274 277 279 283 284 287 288 289 289 291
243 246 249 247 244 248 248 249 251 249 252 254 256 256 253 255 259 262 263 261 261 261 262 260 258 260 260 261 263 264 265 266 265 267 272 276 280 282 284 287 288 289 291 292
250 249 247 244 245 249 250 251 255 255 255 257 258 257 255 257 259 261 263 263 262 261 262 261 259 260 262 263 263 264 266 266 267 268 273 275 281 284 286 288 289 291 292 292
251 252 249 245 246 249 251 254 256 258 259 259 261 260 260 261 261 260 263 264 264 262 261 260 260 260 262 264 265 265 264 266 268 270 274 278 280 284 286 287 288 290 293 294
254 253 251 249 250 251 254 255 257 259 261 261 262 265 262 264 264 265 263 265 266 266 265 263 262 260 262 265 265 264 265 266 267 270 275 279 281 283 284 286 289 290 293 296
256 255 254 254 254 255 255 257 258 259 261 263 264 267 266 265 267 267 267 266 265 266 266 266 266 264 263 265 266 264 266 268 268 270 273 278 280 283 286 287 288 291 293 294
260 257 256 255 254 255 256 258 259 260 262 265 265 265 267 269 270 269 269 268 266 265 266 268 268 266 265 264 265 264 265 268 269 271 273 276 280 284 285 287 287 290 292 292
263 259 258 257 257 257 258 259 262 265 266 267 267 266 269 271 271 270 269 270 269 266 266 267 267 267 266 266 265 264 265 267 269 271 273 275 280 284 285 286 287 288 290 293
267 264 259 257 257 257 258 260 264 266 268 270 270 270 270 272 272 272 272 270 269 268 267 266 266 268 268 267 267 267 267 269 270 271 272 275 279 283 286 287 288 288 289 292
268 267 261 258 257 258 260 262 262 267 271 271 271 273 273 271 272 273 272 269 269 268 267 266 266 267 267 267 267 267 268 270 271 272 273 275 278 282 284 286 288 289 289 291
266 266 264 262 258 259 260 262 264 267 270 272 273 273 274 273 274 274 275 273 268 267 268 268 268 270 269 269 269 269 270 270 272 273 274 275 278 282 285 287 287 289 290 291
268 266 262 262 263 262 261 261 263 265 268 271 273 275 276 276 276 274 275 275 273 270 271 271 272 273 272 272 272 272 272 272 272 273 274 276 278 281 284 286 287 289 290 291
268 267 264 261 262 264 263 262 262 265 268 269 270 272 273 275 275 275 274 276 276 275 275 275 275 275 275 274 274 275 274 274 274 274 275 276 278 281 283 284 285 288 289 291
269 269 269 267 266 265 263 264 264 265 266 268 268 269 270 271 273 274 274 276 277 276 276 277 277 277 277 278 278 278 277 276 276 276 277 278 279 281 282 283 284 287 289 291
271 271 270 269 268 266 264 263 264 264 265 267 269 269 270 271 272 273 274 276 278 277 279 281 281 280 279 280 281 282 281 278 277 277 277 278 279 281 282 283 284 286 287 290
273 272 270 269 269 267 266 264 264 264 264 266 268 268 268 270 273 275 276 277 278 277 277 279 282 282 281 282 283 283 282 280 278 277 277 278 279 281 283 284 284 285 286 288
274 274 272 270 269 269 267 265 264 265 265 267 269 270 270 271 273 276 276 276 277 277 277 277 280 282 282 282 283 283 283 281 278 278 279 279 279 280 282 284 285 285 286 287
274 274 273 271 270 269 270 266 263 265 267 266 268 269 271 272 274 274 274 276 278 278 277 279 280 281 282 284 285 285 284 283 281 280 280 280 280 281 282 284 285 286 286 286
274 272 272 271 270 269 267 266 264 263 267 268 268 269 271 272 272 272 274 275 278 279 278 280 280 281 282 284 286 287 287 287 284 282 282 282 282 282 283 284 285 286 285 286
273 273 271 271 271 271 269 267 265 265 267 266 267 269 272 273 274 274 275 276 278 279 280 280 280 281 283 285 287 289 289 288 287 285 284 284 284 284 285 285 285 285 285 284
274 273 273 274 272 271 269 268 267 268 270 268 268 270 273 275 276 276 277 278 279 279 280 281 281 281 283 284 286 287 288 287 287 286 286 287 287 287 288 287 285 285 285 285
274 274 273 273 271 270 270 269 268 270 271 271 270 271 273 275 275 277 278 279 280 280 281 281 281 281 282 283 285 286 288 287 287 287 287 288 289 290 290 288 286 286 286 286
274 275 275 273 272 271 272 271 270 270 271 271 271 271 273 274 275 276 278 279 279 279 281 282 282 281 282 283 285 287 288 289 289 288 289 290 291 292 291 290 288 287 287 287
273 272 273 273 273 273 273 271 270 271 271 272 272 271 272 274 275 276 277 278 278 279 280 281 282 282 282 283 284 286 288 288 288 288 289 291 292 292 293 292 290 289 288 288
274 273 272 272 272 272 273 272 270 269 270 271 273 273 272 273 275 277 277 277 278 279 280 281 281 281 282 283 283 284 287 287 287 287 289 291 292 292 292 293 293 292 291 290
275 275 275 274 273 273 273 273 271 270 270 272 273 272 273 275 276 277 277 278 278 280 280 280 280 280 280 281 281 283 285 286 286 287 288 290 291 291 292 293 293 293 293 292
Height
5829 5831 5830 5831 5832 5833 5833 5834 5834 5835 5835 5836 5837 5838 5838 5839 5840 5841 5841 5841 5841 5842 5842 5842 5842 5843 5843 5843 5843 5843 5843 5843 5843 5843 5843 5843 5842 5842 5841 5841 5840 5839 5838 5837
5828 5828 5829 5829 5830 5830 5831 5832 5832 5833 5833 5834 5834 5835 5836 5836 5837 5838 5838 5838 5839 5839 5839 5839 5839 5839 5840 5840 5840 5840 5840 5840 5840 5839 5839 5839 5839 5838 5838 5837 5837 5836 5834 5833
5825 5827 5826 5827 5827 5828 5829 5830 5831 5831 5831 5831 5832 5833 5833 5833 5834 5834 5834 5835 5835 5835 5836 5836 5836 5836 5836 5836 5836 5836 5836 5836 5836 5836 5836 5836 5835 5835 5834 5833 5832 5831 5830 5829
5822 5823 5824 5824 5825 5825 5826 5827 5828 5828 5828 5828 5829 5830 5831 5830 5831 5831 5831 5831 5831 5832 5832 5832 5832 5832 5832 5833 5833 5833 5833 5833 5833 5833 5832 5832 5831 5831 5830 5829 5828 5827 5826 5825
5820 5820 5821 5822 5823 5823 5824 5824 5825 5825 5825 5825 5826 5826 5828 5827 5827 5827 5827 5827 5828 5828 5828 5828 5828 5828 5828 5828 5828 5829 5829 5829 5829 5829 5829 5828 5827 5827 5826 5825 5824 5823 5822 5820
5816 5817 5818 5818 5819 5820 5820 5821 5821 5821 5821 5822 5822 5822 5823 5823 5823 5823 5823 5823 5823 5823 5823 5823 5823 5823 5824 5824 5824 5824 5824 5824 5824 5824 5824 5824 5823 5822 5821 5820 5819 5818 5817 5815
5813 5813 5814 5814 5815 5816 5816 5817 5817 5817 5816 5817 5818 5817 5819 5819 5819 5818 5818 5818 5818 5818 5818 5818 5818 5818 5818 5819 5819 5819 5820 5820 5820 5820 5820 5819 5819 5818 5817 5815 5814 5813 5812 5810
5808 5810 5810 5810 5811 5812 5812 5813 5814 5814 5813 5813 5813 5813 5815 5814 5813 5813 5813 5813 5813 5813 5813 5813 5813 5813 5813 5813 5814 5814 5814 5815 5815 5815 5815 5814 5814 5813 5811 5810 5809 5808 5806 5804
5804 5805 5806 5806 5807 5808 5808 5808 5809 5809 5808 5808 5808 5809 5810 5809 5808 5808 5808 5807 5807 5807 5807 5807 5807 5808 5808 5808 5808 5808 5809 5809 5809 5809 5809 5809 5808 5807 5806 5805 5803 5802 5800 5798
5800 5801 5801 5802 5802 5803 5804 5804 5804 5804 5803 5803 5804 5804 5805 5804 5803 5803 5802 5802 5802 5802 5802 5802 5802 5802 5802 5802 5802 5802 5803 5803 5803 5803 5803 5803 5802 5801 5800 5799 5797 5796 5794 5792
5796 5797 5797 5797 5797 5798 5799 5799 5799 5799 5798 5798 5799 5802 5800 5799 5799 5798 5798 5797 5797 5797 5797 5797 5797 5797 5797 5797 5796 5796 5797 5797 5797 5796 5796 5796 5796 5795 5793 5792 5791 5789 5787 5785
5791 5791 5792 5793 5793 5793 5793 5794 5794 5794 5794 5793 5794 5798 5795 5794 5794 5793 5793 5792 5792 5792 5792 5792 5791 5791 5791 5791 5791 5791 5790 5790 5790 5790 5789 5789 5789 5788 5787 5785 5784 5782 5780 5778
5786 5786 5787 5787 5789 5789 5788 5788 5788 5789 5789 5788 5789 5793 5790 5789 5789 5788 5788 5787 5787 5787 5787 5787 5786 5786 5785 5785 5785 5784 5784 5783 5783 5782 5782 5782 5781 5780 5779 5778 5776 5774 5772 5770
5780 5781 5782 5782 5782 5782 5782 5783 5783 5783 5782 5783 5784 5785 5785 5784 5784 5783 5783 5782 5782 5782 5781 5781 5781 5780 5779 5779 5778 5777 5776 5776 5775 5775 5775 5774 5773 5772 5771 5770 5768 5766 5764 5762
5775 5775 5775 5775 5775 5775 5776 5777 5777 5777 5777 5778 5779 5779 5780 5779 5778 5778 5777 5777 5777 5776 5776 5775 5775 5774 5773 5772 5771 5770 5769 5768 5767 5767 5766 5766 5765 5764 5763 5761 5760 5758 5756 5754
5769 5769 5769 5769 5769 5769 5769 5770 5770 5771 5771 5772 5772 5773 5774 5773 5772 5772 5772 5771 5771 5770 5769 5769 5768 5767 5766 5765 5764 5762 5761 5760 5759 5758 5758 5757 5756 5755 5754 5752 5751 5749 5747 5745
5763 5763 5763 5763 5762 5761 5762 5764 5764 5765 5765 5766 5766 5768 5767 5767 5767 5766 5765 5765 5764 5764 5763 5762 5761 5760 5759 5758 5756 5755 5753 5752 5750 5749 5748 5748 5747 5746 5745 5743 5742 5740 5738 5736
5757 5756 5756 5756 5756 5755 5759 5757 5758 5758 5759 5759 5760 5760 5761 5761 5760 5759 5759 5758 5757 5756 5756 5755 5753 5752 5751 5750 5748 5746 5744 5742 5741 5740 5739 5738 5738 5737 5735 5734 5732 5730 5728 5726
5750 5750 5749 5748 5748 5748 5751 5751 5751 5752 5753 5753 5753 5753 5753 5753 5753 5753 5752 5751 5750 5749 5748 5747 5746 5745 5743 5742 5740 5738 5736 5734 5732 5731 5730 5729 5728 5727 5726 5724 5722 5721 5719 5716
5743 5743 5742 5741 5740 5741 5745 5745 5744 5746 5746 5746 5746 5746 5746 5746 5746 5746 5744 5744 5743 5742 5741 5739 5738 5737 5736 5734 5732 5731 5729 5727 5725 5723 5721 5720 5718 5717 5716 5714 5712 5710 5708 5706
5737 5736 5735 5734 5733 5734 5737 5737 5737 5739 5740 5739 5739 5739 5739 5739 5739 5738 5737 5736 5735 5734 5733 5732 5731 5730 5728 5726 5724 5723 5721 5719 5717 5715 5713 5711 5709 5707 5705 5703 5701 5700 5698 5696
5729 5729 5728 5727 5727 5730 5730 5729 5730 5731 5731 5731 5731 5731 5731 5731 5730 5729 5729 5728 5727 5726 5725 5723 5722 5721 5720 5718 5716 5715 5713 5711 5709 5707 5705 5703 5700 5698 5696 5693 5692 5690 5688 5686
5722 5722 5721 5721 5723 5722 5722 5722 5722 5722 5723 5723 5723 5723 5723 5722 5722 5721 5721 5720 5719 5718 5717 5715 5714 5713 5711 5709 5708 5706 5704 5702 5700 5698 5696 5694 5692 5689 5686 5684 5682 5680 5677 5675
5715 5714 5714 5714 5715 5714 5714 5714 5714 5714 5715 5715 5714 5714 5714 5714 5714 5713 5712 5711 5710 5709 5708 5707 5705 5704 5702 5701 5699 5697 5695 5693 5691 5690 5688 5685 5683 5680 5677 5674 5672 5669 5667 5665
5707 5707 5706 5706 5707 5707 5707 5706 5706 5706 5706 5706 5706 5706 5705 5705 5705 5704 5704 5703 5702 5701 5699 5698 5696 5695 5693 5692 5690 5688 5686 5684 5683 5681 5679 5676 5674 5671 5668 5665 5662 5660 5657 5654
5699 5699 5698 5698 5699 5698 5699 5698 5697 5697 5697 5697 5697 5697 5697 5696 5696 5695 5695 5694 5693 5691 5690 5688 5687 5686 5684 5683 5681 5679 5677 5675 5673 5671 5669 5667 5664 5662 5659 5656 5653 5649 5647 5644